Probability
0 0 0 0 0 0 0 0 0 0 0 0 0 0 0 0 0 0 0 0 0 0 0 0 0 0 0 0 0 0 0 0 0 0 0 0 0 0 0 0 0 0 0 0
0 0 0 0 0 0 0 0 0 0 0 0 0 0 0 0 0 0 0 0 0 0 0 0 0 0 0 0 0 0 0 0 0 0 0 0 0 0 0 0 0 0 0 0
0 0 0 0 0 0 0 0 0 0 0 0 0 0 0 0 0 0 0 0 0 0 0 0 0 0 0 0 0 0 0 0 0 0 0 0 0 0 0 0 0 0 0 0
0 0 0 0 0 0 0 0 0 0 0 0 0 0 0 0 0 0 0 0 0 0 0 0 0 0 0 0 0 0 0 0 0 0 0 0 0 0 0 0 0 0 0 0
0 0 0 0 0 0 0 0 0 0 0 0 0 0 0 0 0 0 0 0 0 0 0 0 0 0 0 0 0 0 0 0 0 0 0 0 0 0 0 0 0 0 0 0
0 0 0 0 0 0 0 0 0 0 0 0 0 0 0 0 0 0 0 0 0 0 0 0 0 0 0 0 0 0 0 0 0 0 0 0 0 0 0 0 0 0 0 0
0 0 0 0 0 0 0 0 0 0 0 0 0 0 0 0 0 0 0 0 0 0 0 0 0 0 0 0 0 0 0 0 0 0 0 0 0 0 0 0 0 0 0 0
0 0 0 0 0 0 0 0 0 0 0 0 0 0 0 0 0 0 0 0 0 0 0 0 0 0 0 0 0 0 0 0 0 0 0 0 0 0 0 0 0 0 0 0
0 0 0 0 0 0 0 0 0 0 0 0 0 0 0 0 0 0 0 0 0 0 0 0 0 0 0 0 0 0 0 0 0 0 0 0 0 0 0 0 0 0 0 0
0 0 0 0 0 0 0 0 0 0 0 0 0 0 0 0 0 0 0 0 0 0 0 0 0 0 0 0 0 0 0 0 0 0 0 0 0 0 0 0 0 0 0 0
0 0 0 0 0 0 0 0 0 0 0 0 0 0 0 0 0 0 0 0 0 0 0 0 0 0 0 0 0 0 0 0 0 0 0 0 0 0 0 0 0 0 0 0
0 0 0 0 0 0 0 0 0 0 0 0 0 0 0 0 0 0 0 0 0 0 0 0 0 0 0 0 0 0 0 0 0 0 0 0 0 0 0 0 0 0 0 0
0 0 0 0 0 0 0 0 0 0 0 0 0 0 0 0 0 0 0 0 0 0 0 0 0 0 0 0 0 0 0 0 0 0 0 0 0 0 0 0 0 0 0 0
0 0 0 0 0 0 0 0 0 0 0 0 0 0 0 0 0 0 0 0 0 0 0 0 0 0 0 0 0 0 0 0 0 0 0 0 0 0 0 0 0 0 0 0
0 0 0 0 0 0 0 0 0 0 0 0 0 0 0 0 0 0 0 0 0 0 0 0 0 0 0 0 0 0 0 0 0 0 0 0 0 0 0 0 0 0 0 0
0 0 0 0 0 0 0 0 0 0 0 0 0 0 0 0 0 0 0 0 0 0 0 0 0 0 0 0 0 0 0 0 0 0 0 0 0 0 0 0 0 0 0 0
0 0 0 0 0 0 0 0 0 0 0 0 0 0 0 0 0 0 0 0 0 0 0 0 0 0 0 0 0 0 0 0 0 0 0 0 0 0 0 0 0 0 0 0
0 0 0 0 0 0 0 0 0 0 0 0 0 0 0 0 0 0 0 0 0 0 0 0 0 0 0 0 0 0 0 0 0 0 0 0 0 0 0 0 0 0 0 0
0 0 0 0 0 0 0 0 0 0 0 0 0 0 0 0 0 0 0 0 0 0 0 0 0 0 0 0 0 0 0 0 0 0 0 0 0 0 0 0 0 0 0 0
0 0 0 0 0 0 0 0 0 0 0 0 0 0 0 0 0 0 0 0 0 0 0 0 0 0 0 0 0 0 0 0 0 0 0 0 0 0 0 0 0 0 0 0
0 0 0 0 0 0 0 0 0 0 0 0 0 0 0 0 0 0 0 0 0 0 0 0 0 0 0 0 0 0 0 0 0 0 0 0 0 0 0 0 0 0 0 0
0 0 0 0 0 0 0 0 0 0 0 0 0 0 0 0 0 0 0 0 0 0 0 0 0 0 0 0 0 0 0 0 0 0 0 0 0 0 0 0 0 0 0 0
0 0 0 0 0 0 0 0 0 0 0 0 0 0 0 0 0 0 0 0 0 0 0 0 0 0 0 0 0 0 0 0 0 0 0 0 0 0 0 0 0 0 0 0
0 0 0 0 0 0 0 0 0 0 0 0 0 0 0 0 0 0 0 0 0 0 0 0 0 0 0 0 0 0 0 0 0 0 0 0 0 0 0 0 0 0 0 0
0 0 0 0 0 0 0 0 0 0 0 0 0 0 0 0 0 0 0 0 0 0 0 0 0 0 0 0 0 0 0 0 0 0 0 0 0 0 0 0 0 0 0 0
0 0 0 0 0 0 0 0 0 0 0 0 0 0 0 0 0 0 0 0 0 0 0 0 0 0 0 0 0 0 0 0 0 0 0 0 0 0 0 0 0 0 0 0
Wind_Speed
9 9 15 18 14 5 9 9 9 8 6 8 11 15 14 9 8 9 9 9 11 15 15 13 15 15 14 14 15 16 16 14 12 9 9 9 9 8 8 8 10 11 10 11
10 19 16 11 11 7 8 10 8 4 4 6 8 15 14 10 11 12 12 12 13 12 10 11 13 14 16 18 18 18 18 16 14 12 10 7 6 6 7 7 9 11 12 12
17 9 12 11 11 13 11 11 9 5 1 2 2 9 12 10 10 11 12 13 12 15 15 13 14 16 17 18 19 18 19 18 16 13 7 5 4 3 6 8 10 12 13 12
15 7 14 14 15 16 16 9 8 5 3 4 5 7 9 8 10 14 15 15 16 16 15 13 14 15 17 20 18 18 18 18 16 15 12 12 12 13 13 9 10 10 12 13
14 13 19 20 18 15 6 8 8 7 5 4 5 6 10 5 9 12 14 17 18 17 15 15 15 17 18 18 16 17 16 17 17 17 17 16 15 13 7 7 9 11 11 13
7 7 14 11 11 11 7 6 3 2 3 11 11 8 11 8 11 8 11 14 15 15 14 14 13 13 14 14 14 14 16 17 17 18 18 19 19 15 10 11 12 11 10 11
10 9 7 8 12 10 10 9 6 8 10 11 8 10 14 9 11 12 13 13 13 12 11 12 11 12 12 13 14 15 16 18 18 19 20 20 20 18 17 15 14 12 10 11
16 15 16 12 15 15 18 15 11 10 8 4 5 13 11 9 11 10 11 10 9 9 9 10 10 10 11 12 13 14 16 18 17 18 20 19 18 15 14 15 13 13 12 12
16 13 10 12 9 16 17 16 6 4 2 3 8 9 11 7 9 10 10 9 10 9 8 8 7 7 8 9 11 13 15 15 15 17 17 17 17 17 15 14 13 11 10 9
8 8 8 8 7 8 10 11 7 8 9 7 7 8 9 7 11 10 10 11 11 7 6 5 5 5 5 6 7 8 11 14 14 14 14 13 15 15 14 12 13 13 12 11
7 8 9 11 17 20 13 15 10 8 6 8 7 11 10 13 14 14 15 12 10 8 7 6 5 5 4 4 4 5 7 8 9 10 11 11 12 13 13 13 14 14 12 12
8 6 9 12 5 11 10 13 14 13 9 7 6 12 5 10 11 12 12 10 8 7 6 5 4 3 3 4 4 4 5 6 7 7 7 9 10 10 11 13 14 13 13 13
11 9 9 7 5 9 12 13 16 10 6 6 8 14 3 5 7 8 9 8 7 6 5 4 3 3 4 4 4 4 5 5 5 5 5 6 7 8 10 11 10 10 12 12
10 8 11 16 13 15 17 18 19 13 11 11 15 15 7 6 7 7 8 8 7 7 7 6 5 5 5 4 4 4 5 4 4 4 4 5 6 6 6 6 7 8 8 10
8 8 8 6 5 12 12 20 23 21 18 17 19 20 18 11 10 10 9 8 7 7 7 7 7 6 5 4 4 4 4 4 4 4 4 5 4 3 3 3 4 4 5 7
8 7 8 8 9 12 11 18 24 26 25 20 16 22 18 9 7 7 9 9 10 10 10 9 8 7 6 6 5 5 4 4 3 4 3 2 1 1 2 2 2 3 3 3
8 7 9 11 8 9 19 26 29 26 27 28 28 29 9 11 15 15 13 12 13 12 11 10 9 8 7 6 6 6 5 3 4 3 2 2 2 1 1 1 1 2 2 1
9 8 5 6 10 19 15 15 18 24 28 27 24 20 16 17 14 12 13 14 13 12 10 9 8 7 6 5 4 4 3 3 4 3 2 2 2 1 1 0 1 1 0 0
12 10 6 7 11 10 8 12 25 26 28 28 29 26 15 9 6 11 12 12 13 12 10 8 7 6 5 4 4 4 4 3 3 3 2 2 2 2 1 1 1 0 0 0
12 10 8 7 9 14 15 10 12 13 20 22 25 26 17 11 13 18 11 10 10 8 6 6 5 4 4 3 4 6 5 4 4 3 3 2 2 2 2 1 1 1 1 1
13 11 13 10 9 11 9 7 17 18 22 17 19 20 17 20 22 13 9 10 9 7 6 5 5 4 3 3 6 6 5 4 3 3 3 3 2 2 2 2 1 2 2 2
14 11 12 10 9 13 5 12 19 13 6 6 13 17 19 20 17 11 9 9 8 7 6 6 6 4 2 3 6 6 4 3 3 4 4 3 3 2 2 3 3 2 3 3
11 11 8 10 11 4 6 8 7 3 6 6 7 9 12 13 12 10 8 8 8 7 6 6 7 6 3 3 4 6 4 4 5 5 4 4 3 3 3 3 3 2 2 2
4 2 4 5 7 5 4 3 2 2 4 4 4 4 5 7 7 7 8 7 7 7 7 6 8 7 5 3 3 3 4 4 6 6 4 4 4 3 3 2 2 2 2 2
3 2 4 7 5 2 3 3 3 3 2 1 0 2 4 6 6 6 7 8 7 6 6 6 7 8 6 5 4 3 3 5 6 5 4 3 3 3 3 3 2 2 1 1
2 3 5 7 3 4 6 4 3 2 2 2 1 1 2 5 7 7 6 6 6 7 7 7 7 7 6 5 5 3 2 4 6 5 4 3 3 3 3 3 3 5 4 4
Wind_Direction
172 187 203 200 197 185 167 177 197 209 207 191 221 240 246 241 241 242 240 234 230 230 229 217 210 206 201 198 196 197 197 195 188 188 191 193 198 197 198 199 197 197 196 193
176 211 206 185 186 194 186 194 203 232 222 203 235 249 252 234 231 233 234 235 234 236 233 220 210 203 202 201 200 199 200 197 196 199 198 197 193 197 202 200 202 202 199 197
201 197 172 173 185 200 210 200 193 201 234 231 258 276 255 245 229 235 235 234 233 230 227 219 211 206 204 205 203 202 202 201 200 195 183 176 179 188 199 206 208 207 204 202
209 179 169 186 196 193 218 197 183 185 173 233 199 263 264 238 236 233 235 236 235 233 228 220 212 208 207 208 206 205 203 202 199 193 191 191 200 208 210 206 207 205 205 206
202 181 180 195 199 187 194 168 183 194 196 240 224 241 269 246 241 239 236 236 237 234 227 223 216 211 210 208 205 205 203 203 200 198 200 202 212 217 210 200 204 208 208 209
195 179 188 191 184 178 138 126 124 150 185 238 216 214 262 218 217 227 236 237 236 233 228 226 221 214 212 208 205 203 202 205 201 201 204 207 213 214 207 207 211 212 212 213
188 193 186 156 161 171 168 157 180 199 213 236 176 209 249 217 217 214 225 236 238 231 225 224 219 213 212 208 206 205 204 208 204 203 207 211 214 214 215 214 215 213 214 216
192 198 188 179 181 182 191 183 188 197 206 231 181 227 249 228 232 235 237 240 242 234 225 222 219 214 214 212 208 206 207 211 207 206 210 213 215 216 220 219 218 217 219 220
194 208 179 190 167 167 182 200 188 144 127 195 230 259 290 248 250 247 244 240 237 230 220 220 218 213 214 214 210 208 209 213 212 211 212 214 215 217 221 219 218 220 221 218
168 190 182 173 151 185 177 163 159 179 176 220 248 239 236 216 221 231 230 227 229 226 219 218 216 214 216 215 215 211 211 215 215 214 214 216 217 219 222 220 220 220 220 216
168 173 172 173 190 185 167 178 180 178 191 192 235 249 216 199 202 209 217 217 217 218 216 215 215 217 213 209 207 209 215 219 220 218 217 218 220 219 219 222 223 223 221 217
169 167 189 198 211 191 181 185 178 189 199 200 220 260 227 210 212 209 213 215 215 212 211 213 209 207 209 216 216 214 216 220 223 220 219 222 223 220 221 225 226 223 223 220
163 170 174 188 205 193 198 192 193 189 161 183 206 254 245 213 217 214 211 215 212 207 205 206 208 214 222 226 225 223 220 222 222 214 217 223 225 224 227 229 229 225 225 224
171 185 200 206 198 187 194 197 192 185 201 211 221 242 248 222 217 218 212 210 205 204 203 204 213 225 229 229 228 228 230 220 212 206 211 222 226 228 232 235 233 230 227 226
186 202 212 231 196 179 197 199 196 204 210 214 226 233 238 221 212 211 207 204 203 210 213 212 213 220 226 231 233 230 231 217 199 198 209 223 228 234 240 244 243 238 233 232
190 197 198 224 208 194 204 205 204 210 214 223 233 241 235 217 214 214 210 205 212 216 218 218 217 217 221 223 225 226 227 213 184 192 209 216 214 227 241 252 258 251 246 242
186 177 191 218 202 196 216 206 204 211 216 216 226 236 219 202 209 211 210 210 214 218 218 215 214 215 218 217 211 211 212 183 167 183 195 193 193 213 244 253 258 251 248 238
189 187 193 189 186 219 229 208 204 215 222 219 227 234 214 216 218 216 211 210 216 216 215 217 214 213 215 209 195 183 164 156 162 173 186 187 181 200 231 243 251 259 252 211
196 189 194 201 217 236 255 202 196 204 225 221 226 233 224 212 223 241 221 210 214 214 212 212 207 201 194 186 172 151 147 147 152 171 188 188 173 174 182 203 222 220 84 74
195 194 195 203 215 224 231 210 187 189 241 227 221 230 221 184 222 238 209 201 208 208 199 194 182 166 163 171 149 142 151 150 168 181 179 161 154 161 173 176 157 111 97 86
186 196 205 211 224 244 244 169 142 182 229 223 211 222 212 210 226 232 184 191 192 188 181 164 150 151 170 157 139 142 147 166 171 144 132 130 138 147 144 129 113 109 106 99
188 193 201 195 209 237 211 160 176 207 213 189 199 211 214 223 228 218 190 179 172 171 168 159 149 146 133 134 139 143 157 157 128 123 121 120 119 118 120 120 111 107 115 111
198 197 193 200 216 230 174 197 216 203 198 204 202 216 211 217 219 206 190 179 171 168 164 153 147 137 113 113 136 148 148 129 123 120 118 114 109 104 110 120 123 117 120 122
237 211 184 221 240 226 217 251 277 258 230 224 209 203 185 194 195 183 169 165 163 158 154 146 140 139 132 111 105 120 122 127 126 124 121 121 120 109 96 95 107 120 131 131
238 211 206 226 250 272 242 247 273 287 307 314 208 160 166 162 167 166 163 164 162 151 140 140 145 144 137 119 102 91 108 123 122 121 121 120 117 120 112 95 87 102 91 114
204 204 213 230 232 226 242 257 266 245 257 248 163 112 111 146 154 149 151 148 144 140 132 130 128 128 123 116 102 82 92 121 129 128 128 128 126 118 112 108 83 67 74 68